Regional Weather Roundup
Issued by NWS

Home | Current Version | Previous Version | Graphics & Text | Print | Product List | Glossary On
Versions: 1 2 3 4 5 6 7 8 9 10 11 12 13 14 15 16 17 18 19 20 21 22 23 24 25 26 27 28 29 30 31 32 33 34 35 36 37 38 39 40 41 42 43 44 45 46 47 48 49 50
000
ASUS43 KMPX 012301
RWRMN
WEATHER ROUNDUP FOR MINNESOTA
NATIONAL WEATHER SERVICE TWIN CITIES/CHANHASSEN MN
600 PM CDT SAT AUG 01 2015


NOTE: "FAIR" INDICATES FEW OR NO CLOUDS BELOW 12,000 FEET WITH NO
SIGNIFICANT WEATHER AND/OR OBSTRUCTIONS TO VISIBILITY. N/A MEANS
CURRENT SKY AND/OR WEATHER CONDITIONS ARE NOT AVAILABLE.

MNZ060>063-068>070-020000-
   Twin Cities Metro

CITY           SKY/WX    TMP DP  RH WIND       PRES   REMARKS
TWIN CITIES    MOSUNNY   85  63  47 S8        29.83F
ST PAUL        MOSUNNY   85  62  46 S7        29.83F
CRYSTAL        MOSUNNY   85  62  46 S8        29.81F
BLAINE         MOSUNNY   84  63  48 S7        29.83
LAKEVILLE      SUNNY     82  66  57 S5        29.85F
EDEN PRAIRIE   MOSUNNY   84  66  54 S9        29.82F
SOUTH ST PAUL  MOSUNNY   85  62  45 S6        29.84F
LAKE ELMO      FAIR      81  64  57 S6        29.85F
$$
MNZ001>005-007-008-013>017-022>024-027-028-020000-
   Northwest Minnesota

CITY           SKY/WX    TMP DP  RH WIND       PRES   REMARKS
BEMIDJI        SUNNY     80  56  43 SW9       29.79F
HALLOCK        SUNNY     81  57  44 SW7       29.72F
ROSEAU         MOSUNNY   81  61  50 SW10      29.74F
WARROAD        MOSUNNY   81  61  50 SW9       29.74F
THIEF RVR FALL SUNNY     81  57  44 S9        29.77F
CROOKSTON      SUNNY     82  61  47 SW9       29.76F
FOSSTON        SUNNY     82  57  42 SW8       29.79F
DETROIT LAKES  MOSUNNY   81  55  41 S8        29.81F
MOORHEAD       SUNNY     84  61  45 S8        29.77F
PARK RAPIDS    SUNNY     83  54  36 SW10      29.81F
MAHNOMEN       FAIR      81  60  48 SW5       29.78F
$$
MNZ006-009>011-018-025>026-020000-
   North Central Minnesota

CITY           SKY/WX    TMP DP  RH WIND       PRES   REMARKS
BAUDETTE       MOSUNNY   80  53  39 W12       29.74F
FLAG ISLAND    SUNNY     79  52  38 W13       29.70F
INTL FALLS     SUNNY     79  55  43 W9        29.73F
WASKISH        MOSUNNY   77  61  57 SW7       29.77F
BIG FORK       SUNNY     81  54  39 SW8       29.78F
LONGVILLE      MOSUNNY   81  55  41 W6        29.81F
GRAND RAPIDS   MOSUNNY   79  54  41 SW7       29.81F
CRANE LAKE     MOSUNNY   77  46  33 W5        29.76F
ORR            SUNNY     79  46  31 CALM      29.75F
COOK           SUNNY     79  52  38 SW12G18   29.78F
WALKER         FAIR      80  56  43 S7        29.80F
$$
MNZ012-019>021-037-020000-
   Northeast Minnesota

CITY           SKY/WX    TMP DP  RH WIND       PRES   REMARKS
DULUTH         MOSUNNY   80  52  37 W16       29.81F
ELY            SUNNY     79  45  29 W14       29.77F
HIBBING        SUNNY     80  50  34 W9        29.79F
EVELETH        SUNNY     81  48  32 SW10G18   29.80F
DULUTH HARBOR  SUNNY     82  55  39 SW15G23   29.78F
TWO HARBORS    SUNNY     82  57  42 W10       29.76F
SILVER BAY     SUNNY     82  50  32 W6        29.76S
GRAND MARAIS     N/A     57  46  66 W6        29.73F
G MARAIS ARPRT MOSUNNY   73  45  35 SW8       29.79F
$$
MNZ029>031-032-039>041-046>048-054>057-064-020000-
   West Central Minnesota

CITY           SKY/WX    TMP DP  RH WIND       PRES   REMARKS
FERGUS FALLS   SUNNY     82  66  57 S10       29.77F
WHEATON        MOSUNNY   84  68  58 SW7       29.77F
MORRIS         SUNNY     86  66  51 SW14      29.78F
ALEXANDRIA     SUNNY     83  66  56 S12       29.83F
ELBOW LAKE     FAIR      83  68  62 SE8       29.79F
WADENA         MOSUNNY   82  57  42 S7        29.81F
GLENWOOD       MOSUNNY   84  70  61 S10       29.82F
APPLETON       SUNNY     88  64  45 SW12G17   29.78F
BENSON         SUNNY     86  64  48 SW9       29.79F
ORTONVILLE     SUNNY     86  66  51 SW7       29.78F
MADISON        SUNNY     86  63  45 SW8       29.80F
WILLMAR        FAIR      84  64  51 SW12      29.82F
$$
MNZ033>034-036-042>043-049>051-058-059-020000-
   Central Minnesota

CITY           SKY/WX    TMP DP  RH WIND       PRES   REMARKS
ST CLOUD       SUNNY     82  64  54 S8        29.81F
SAUK CENTRE    FAIR      81  67  62 S7        29.82F
PAYNESVILLE    MOSUNNY   79  65  62 E7        29.82F
AITKIN         MOSUNNY   81  59  47 S7        29.81F
PINE RIVER     MOSUNNY   81  57  44 SW7       29.84F
BRAINERD       MOSUNNY   81  55  40 S13       29.82F
STAPLES        MOSUNNY   81  57  44 S8        29.82F
LONG PRAIRIE   FAIR      81  64  57 S8        29.82F
LITTLE FALLS   MOSUNNY   82  59  44 S6        29.82F
LITCHFIELD     MOSUNNY   84  70  61 SE5       29.82F
BUFFALO        MOSUNNY   83  63  51 S6        29.84F
$$
MNZ037-044-045-052-053-020000-
   East Central Minnesota

CITY           SKY/WX    TMP DP  RH WIND       PRES   REMARKS
PRINCETON      MOSUNNY   82  63  51 S7        29.82F
MORA           SUNNY     79  55  44 SW6       29.84F
CAMBRIDGE      MOSUNNY   82  63  51 S8        29.82F
RUSH CITY      MOSUNNY   81  58  46 SW6       29.83F
MOOSE LAKE     MOSUNNY   77  57  50 SW5       29.81F
HINCKLEY       FAIR      81  61  50 SW9       29.83F
CLOQUET        MOSUNNY   81  48  32 W7        29.82F
MCGREGOR       MOSUNNY   79  55  44 S7        29.82F
$$
MNZ071>073-080-081-089-090-097-098-020000-
   Southwest Minnesota

CITY           SKY/WX    TMP DP  RH WIND       PRES   REMARKS
MONTEVIDEO     SUNNY     90  66  45 W7        29.82F HX  92
GRANITE FALLS  SUNNY     85  66  53 S9        29.83F
CANBY          SUNNY     86  61  43 SW8       29.82F
MARSHALL       SUNNY     86  64  48 SW14      29.84F
REDWOOD FALLS  SUNNY     87  63  44 SW15      29.82F
OLIVIA         SUNNY     81  61  50 SW10      29.82F
PIPESTONE      SUNNY     81  63  54 SW10G18   29.88S
WINDOM         SUNNY     84  63  48 S13       29.86F
WORTHINGTON    SUNNY     81  63  54 SW14      29.88F
JACKSON        SUNNY     84  64  51 SW9       29.89F
TRACY          SUNNY     84  66  54 SW10      29.85F
SLAYTON        SUNNY     83  63  50 SW8G16    29.87F
$$
MNZ065>067-074>077-082>085-091>093-020000-
   South Central Minnesota

CITY           SKY/WX    TMP DP  RH WIND       PRES   REMARKS
MANKATO        MOSUNNY   84  64  51 S10       29.84F
NEW ULM        SUNNY     84  61  45 SW10      29.84F
ST JAMES       SUNNY     86  66  51 S8        29.86F
FAIRMONT       SUNNY     84  63  48 SW10      29.88F
GLENCOE        MOSUNNY   86  72  61 S7        29.82F HX  92
FARIBAULT      SUNNY     84  70  61 S6        29.86F
OWATONNA       SUNNY     82  68  61 S7        29.87F
WASECA         SUNNY     82  66  57 SW10      29.88F
ALBERT LEA     SUNNY     84  64  51 SW8       29.89F
$$
MNZ078>079-086>088-094>096-020000-
   Southeast Minnesota

CITY           SKY/WX    TMP DP  RH WIND       PRES   REMARKS
ROCHESTER      SUNNY     81  67  62 W9        29.90F
RED WING       SUNNY     86  59  39 W7        29.84F
STANTON        SUNNY     84  64  49 S3        29.84F
DODGE CENTER   SUNNY     81  66  61 SW7       29.89F
WINONA         SUNNY     82  63  51 NW3       29.87F
AUSTIN         SUNNY     84  64  51 SW9       29.90F
PRESTON        SUNNY     82  64  53 W7        29.92F
$$
ABBREVIATIONS USED IN REMARKS
   TC - TEMPERATURES IN CELSIUS
  WCI - WIND CHILL INDEX
   HX - HEAT INDEX
  VSB - VISIBILITY
$$



USA.gov is the U.S. government's official web portal to all federal, state and local government web resources and services.